GFSNGP_con_lsi_336.txt.gz
Lid_Strength_Index
7 7 7 7 7 7 8 7 9 8 8 6 6 5 5 4 4 5 4 4 3 3 3 3 3 2 1 1 1 1 1 2 2 1 -0 0 1 1 1 1 1 1 1 1
8 7 7 8 7 7 7 7 7 7 7 5 5 4 4 5 5 5 4 4 4 3 3 3 3 2 2 1 2 2 4 4 1 1 1 1 0 -0 -0 1 1 1 1 1
10 7 8 9 7 7 7 6 7 8 6 5 5 4 4 4 4 4 4 4 4 4 3 3 3 2 3 2 2 3 4 2 2 2 2 2 3 1 1 1 1 1 1 1
9 8 13 7 5 6 7 6 6 6 5 5 4 4 4 4 4 4 4 3 3 3 3 2 2 2 2 2 1 1 2 2 2 2 1 1 2 3 2 1 1 1 1 1
10 10 8 7 6 6 7 7 5 6 5 4 4 4 6 5 4 4 3 3 3 2 2 2 2 2 2 2 2 2 2 2 2 1 2 1 2 2 1 1 2 1 1 1
9 11 12 7 5 4 5 9 5 5 6 6 5 8 8 5 5 6 4 3 2 2 2 2 1 1 2 2 2 3 2 2 1 1 1 1 2 2 1 1 1 1 1 1
9 10 8 5 5 4 10 9 5 4 5 5 6 5 4 4 4 4 4 3 3 2 2 2 1 1 2 2 2 2 1 1 1 1 1 0 1 1 1 1 1 1 2 1
9 11 12 5 5 8 6 4 4 4 4 4 4 3 3 3 3 2 3 2 2 3 3 3 2 2 2 2 1 1 1 0 1 1 1 1 1 1 1 1 2 2 2 2
8 9 5 4 4 3 3 4 4 4 3 3 4 4 3 3 2 2 2 2 2 2 3 3 2 2 3 2 1 1 1 1 1 1 1 1 1 1 2 2 2 2 2 2
7 6 5 4 3 3 3 3 3 3 3 3 4 3 3 3 3 3 2 2 2 2 2 2 2 2 2 2 1 1 1 1 1 1 1 1 1 1 2 2 2 2 2 3
7 5 5 4 4 3 3 3 3 3 3 3 3 3 3 3 3 3 2 2 2 2 2 2 0 0 1 1 1 2 1 2 2 2 2 2 2 1 2 1 1 2 2 2
8 5 5 5 3 3 3 3 3 3 4 3 3 3 3 3 2 2 2 2 2 2 2 2 2 1 0 -0 1 2 2 2 2 1 1 1 1 1 3 4 6 7 6 3
5 3 4 3 3 3 3 3 3 3 3 3 3 3 2 3 2 3 2 2 2 2 2 2 1 1 1 1 1 1 2 2 2 1 1 1 1 2 2 2 6 7 9 10
3 3 4 4 4 3 3 3 3 3 3 3 3 2 2 2 2 2 3 2 2 2 2 2 2 2 1 1 1 1 1 4 2 2 1 1 1 1 2 2 3 2 5 8
3 3 3 3 3 3 3 3 3 3 3 3 2 2 2 3 3 3 2 2 2 2 2 2 2 2 1 1 1 2 2 2 1 1 1 1 1 1 2 2 2 2 2 7
3 3 3 4 4 4 4 3 4 4 3 3 3 3 2 2 2 2 2 2 3 4 2 2 2 2 1 1 1 1 1 2 1 1 1 1 2 2 2 2 2 2 2 2
5 5 4 4 5 4 4 4 4 3 3 3 3 2 2 3 3 3 3 2 2 2 2 2 2 1 1 1 1 1 1 1 1 1 1 2 2 2 2 2 2 2 2 2
3 4 4 4 5 4 4 3 3 3 3 2 3 3 3 3 4 3 3 2 2 2 2 1 1 1 2 2 1 1 1 1 1 2 1 2 2 2 2 2 2 2 2 2
4 4 4 4 4 3 3 3 3 3 3 3 3 3 3 3 3 3 2 3 3 3 2 1 1 1 2 2 1 1 1 1 2 2 2 2 2 2 2 2 2 2 2 2
4 4 4 4 3 2 3 2 2 3 2 3 3 3 3 3 2 2 2 3 3 2 1 1 2 2 2 1 1 1 1 2 2 2 2 2 2 2 2 3 2 2 2 2
5 5 4 3 3 2 2 2 3 3 3 2 3 3 3 3 2 2 3 3 2 1 1 2 2 1 2 1 1 2 2 2 2 2 2 2 2 2 2 2 2 2 2 2
4 4 3 3 3 3 3 2 2 2 3 2 3 3 3 3 2 2 1 2 1 3 1 1 1 2 1 1 1 1 1 2 2 2 2 2 2 2 2 2 2 2 2 2
3 3 3 3 3 3 3 3 2 2 3 2 3 2 2 2 2 3 4 1 2 4 2 2 3 3 3 3 3 2 2 2 2 2 2 2 2 2 2 2 2 2 2 2
3 3 3 3 2 3 4 3 2 2 2 2 1 1 2 3 2 1 1 3 4 3 2 2 3 3 3 2 2 2 2 2 3 3 2 5 2 2 2 2 2 2 1 2
2 3 3 3 4 4 3 2 2 2 2 1 1 1 1 1 2 1 1 1 4 2 2 2 3 4 2 2 2 3 2 2 2 2 2 2 2 2 2 2 2 2 1 1
2 3 3 2 3 3 2 2 3 2 2 2 2 2 1 1 1 1 1 1 1 2 1 1 1 1 1 1 2 2 2 2 2 2 3 2 2 2 2 2 2 2 1 1
3 5 3 3 2 2 2 2 2 3 2 2 2 1 1 1 1 2 3 1 1 1 1 1 1 1 1 1 1 1 1 1 4 1 1 1 2 1 1 2 2 1 1 1

GFSNGP_con_lsi_339.txt.gz
Lid_Strength_Index
9 9 9 9 9 9 12 11 13 12 12 9 8 8 7 6 6 6 6 5 5 5 5 4 4 3 2 2 2 2 2 2 2 3 2 1 1 1 1 1 1 1 1 1
11 8 9 10 9 9 9 9 10 11 10 8 8 6 7 6 6 6 6 5 5 6 5 6 6 6 4 3 3 2 3 4 4 4 4 5 2 2 1 1 1 1 1 1
13 9 9 12 9 9 10 9 10 12 10 7 7 8 8 7 6 6 6 5 5 4 4 4 3 3 3 4 5 4 5 4 4 3 2 2 2 4 4 4 3 2 1 1
13 12 16 10 7 7 9 8 8 8 7 7 7 7 6 6 6 6 5 6 6 4 4 3 3 3 3 3 4 5 5 5 5 4 2 2 3 5 5 3 3 3 1 2
13 14 11 9 8 8 9 10 7 8 7 6 6 6 7 5 5 5 4 4 4 3 3 3 5 3 3 3 4 4 4 5 3 3 2 2 2 4 5 4 2 2 2 1
12 15 16 10 7 6 7 12 6 6 7 7 7 10 8 5 4 4 4 4 3 3 3 4 4 2 3 4 5 5 4 3 2 2 2 2 2 5 4 3 3 2 2 1
12 14 11 8 6 6 13 12 6 6 6 7 8 8 6 5 4 4 3 3 3 3 3 3 2 2 4 4 3 2 2 2 2 2 2 2 2 2 2 2 2 2 2 2
12 14 15 6 7 11 8 7 6 6 5 6 6 5 5 4 5 4 4 3 3 4 4 3 2 3 3 3 3 4 4 3 2 2 2 2 2 2 2 3 3 3 3 2
11 11 7 7 7 6 6 6 6 5 5 5 5 5 4 5 4 4 4 3 3 4 4 3 3 3 3 3 2 3 4 5 5 1 2 2 2 2 3 2 3 3 3 3
9 9 7 6 6 5 5 5 5 4 5 5 6 5 5 5 5 4 4 4 3 3 4 4 3 3 4 4 2 3 5 3 2 2 2 2 2 2 2 3 3 3 3 3
9 8 7 6 5 5 4 4 4 4 4 5 5 5 5 5 5 4 4 3 3 3 4 4 3 4 3 2 3 4 3 3 2 2 2 2 2 2 2 2 3 3 3 2
11 7 7 7 5 4 5 5 5 5 5 4 5 5 5 5 4 4 4 3 3 3 3 3 3 2 2 2 2 4 3 3 3 2 3 4 3 3 6 6 5 8 7 4
7 6 5 5 4 4 4 4 4 5 5 5 5 4 4 5 4 4 4 4 4 4 4 4 3 3 2 2 2 2 3 3 2 4 4 4 3 3 5 4 4 7 9 10
4 5 6 5 6 4 4 4 4 4 5 5 4 4 4 4 4 4 4 3 3 3 3 3 3 3 3 2 3 2 2 3 2 3 3 3 4 3 3 4 4 3 5 7
5 4 5 4 4 4 4 4 5 6 5 5 4 4 4 4 4 4 3 3 3 3 3 3 3 3 2 3 2 3 4 3 2 4 4 4 3 3 3 4 4 4 3 5
4 4 4 5 5 5 5 5 6 6 5 4 4 4 4 4 4 3 3 3 4 4 3 3 3 2 2 2 2 2 2 2 3 2 4 4 3 3 3 3 3 3 4 3
6 6 6 6 5 5 6 6 6 5 4 4 4 4 4 4 3 4 4 4 4 4 3 3 3 2 2 2 2 2 2 2 2 2 3 3 3 4 3 3 3 3 3 3
4 4 5 5 6 6 6 6 5 4 4 4 4 4 4 4 5 5 5 4 4 4 3 2 2 2 2 3 3 2 2 2 2 3 2 3 3 3 3 3 3 3 4 3
4 5 5 5 5 6 6 5 4 4 4 4 4 4 4 5 5 5 4 4 4 4 3 2 1 1 2 1 4 4 3 3 2 2 2 3 3 3 3 3 3 3 3 3
4 5 5 5 4 5 5 4 4 4 3 3 3 4 5 5 5 4 4 4 4 4 3 3 2 3 3 2 1 2 2 3 2 2 3 2 3 3 3 4 3 3 3 3
5 5 5 5 5 4 4 3 4 4 3 3 4 5 5 5 4 3 4 5 4 4 4 3 3 3 3 2 2 3 3 3 2 2 3 3 3 3 3 3 2 3 3 3
5 5 5 4 4 4 3 3 3 3 4 4 5 5 5 5 4 3 3 4 4 4 3 3 3 2 2 1 1 2 3 3 3 2 3 3 3 3 3 3 3 3 2 3
4 5 4 4 4 4 3 3 3 3 4 4 4 4 4 3 3 4 5 3 3 3 2 2 2 2 2 2 2 2 2 2 2 3 3 3 3 3 3 3 2 2 2 2
4 4 4 4 3 4 5 3 3 3 3 3 3 3 3 4 3 3 2 4 4 4 3 2 2 2 3 1 3 2 3 3 2 2 2 5 2 2 2 2 2 2 2 3
4 4 4 4 4 4 4 3 3 3 3 3 3 2 2 2 3 2 2 2 4 4 2 2 2 3 1 1 2 2 2 2 3 2 2 2 2 2 2 2 2 2 2 2
4 4 4 3 3 3 3 3 4 3 3 4 3 3 2 2 2 2 2 2 2 2 2 2 2 2 2 2 2 2 2 2 2 2 2 2 2 2 2 2 2 1 1 1
3 5 3 4 3 3 3 3 4 4 3 3 3 2 2 2 2 3 3 2 2 2 3 3 4 4 2 2 2 2 2 2 5 2 2 2 2 2 1 2 2 2 2 2

GFSNGP_con_lsi_342.txt.gz
Lid_Strength_Index
12 11 11 11 11 10 13 14 14 12 13 12 9 8 8 7 6 6 6 6 6 6 6 5 4 3 3 5 5 2 2 2 2 2 1 1 1 1 1 1 1 1 2 1
12 10 10 11 10 10 10 10 12 12 12 10 8 7 7 7 6 7 7 6 5 4 4 4 4 3 3 3 4 2 2 2 2 2 3 4 2 2 2 2 1 1 1 1
14 11 11 12 11 10 10 11 10 13 11 8 8 8 8 7 7 7 6 6 5 5 4 4 4 4 4 3 2 2 2 3 3 3 3 3 3 3 2 2 2 2 2 1
14 13 16 11 9 8 9 9 8 8 8 8 8 7 7 6 6 6 5 5 4 4 4 3 3 2 2 3 3 4 4 5 5 5 4 2 2 2 3 3 3 3 3 4
14 15 12 10 9 9 10 10 8 9 8 7 7 6 7 5 5 5 4 5 4 3 3 3 3 2 3 3 3 3 3 3 2 2 4 3 2 3 4 5 5 5 5 4
14 15 15 11 8 7 8 13 7 7 8 7 8 11 9 5 4 4 4 4 3 3 3 4 3 2 3 3 3 3 3 3 3 3 3 4 3 2 3 5 5 3 2 3
14 15 12 9 7 7 13 12 7 7 8 8 9 8 7 5 4 4 4 3 3 3 3 3 2 3 5 4 3 2 2 2 3 4 2 2 2 2 2 5 3 3 3 2
14 15 15 7 8 10 8 8 7 7 7 7 7 6 6 5 5 4 4 3 4 3 4 3 2 3 3 4 2 2 2 3 3 3 2 2 2 2 3 3 4 4 4 4
11 11 8 8 8 7 8 8 8 7 7 7 7 7 6 6 5 5 5 5 4 4 3 3 3 4 4 3 2 2 2 2 3 3 2 2 2 2 3 3 3 3 3 3
11 9 8 7 6 6 6 6 6 6 6 6 6 6 6 6 6 6 5 5 4 4 4 4 3 2 2 3 3 2 3 3 4 5 6 2 2 2 2 3 3 3 4 3
10 9 7 6 6 5 5 5 5 5 5 5 6 7 7 7 6 6 5 5 5 5 4 4 3 3 2 2 3 3 3 3 5 5 5 3 2 2 2 2 2 3 3 2
11 8 8 7 6 5 5 6 6 5 6 5 6 6 6 7 6 6 6 5 5 5 5 4 4 3 3 2 2 2 3 3 3 2 2 3 2 2 6 7 7 8 9 6
7 7 6 5 5 5 5 5 5 5 6 6 6 6 7 7 6 5 4 4 4 4 4 4 4 4 3 4 3 3 3 3 2 3 3 3 3 4 5 6 7 8 9 9
6 6 7 6 6 5 5 5 5 6 6 5 6 6 7 6 4 4 4 4 3 4 4 5 5 5 3 3 3 4 4 3 3 3 3 4 4 4 6 7 5 4 6 6
5 5 6 6 6 6 6 6 7 6 6 6 6 6 5 4 5 4 3 3 4 5 6 6 5 5 5 4 3 3 3 2 3 3 3 3 3 4 4 4 5 5 5 5
6 6 6 6 7 7 7 7 7 7 6 6 5 5 4 4 4 4 4 5 6 7 6 6 5 4 4 4 3 3 3 2 2 2 2 2 2 3 3 4 5 5 5 5
7 7 7 7 7 7 7 7 7 5 5 5 5 4 4 4 5 5 5 6 6 6 5 5 5 4 4 3 4 5 4 3 2 2 3 3 3 3 3 4 5 4 4 4
5 6 6 7 7 7 7 6 5 5 5 5 4 4 4 5 6 6 6 6 5 5 5 5 4 4 4 4 3 6 4 2 2 3 2 3 3 3 3 4 4 4 4 4
5 6 6 6 7 7 7 6 5 4 5 4 4 4 5 6 7 6 6 6 6 6 5 4 3 3 4 4 2 4 4 4 3 3 2 3 3 3 3 3 4 3 3 4
6 6 6 6 6 6 5 4 4 5 4 4 4 6 7 7 6 6 6 6 5 5 4 4 3 3 1 1 1 2 2 3 3 3 2 3 3 3 3 5 3 3 3 3
7 6 6 6 5 5 5 4 4 5 4 4 6 7 7 6 6 6 5 6 4 5 3 2 2 2 2 1 2 2 2 2 3 4 4 3 3 3 3 3 2 3 3 3
6 6 5 5 5 5 4 4 4 4 5 5 6 6 6 5 5 5 5 5 4 3 3 3 2 2 2 1 2 2 2 2 2 2 4 5 4 4 4 3 3 3 3 2
7 6 5 5 5 4 4 4 4 4 4 6 6 5 5 5 5 5 6 4 4 4 3 3 2 2 2 2 2 2 2 2 2 2 2 2 2 2 2 2 3 3 3 2
6 5 5 4 4 5 5 4 3 3 4 5 4 4 5 5 4 4 4 4 4 4 4 4 3 2 2 3 2 2 2 2 2 2 2 5 2 2 2 2 2 2 2 3
5 5 5 5 5 5 4 3 4 4 5 5 4 4 4 4 4 4 4 3 4 4 3 2 2 2 2 3 3 3 3 3 3 2 2 2 2 2 2 2 2 2 2 2
5 5 5 4 4 3 4 3 4 4 4 4 4 3 3 3 3 3 4 3 2 3 2 2 2 4 2 2 2 2 3 3 3 3 3 2 2 2 1 2 2 2 2 2
5 6 5 4 4 4 4 4 5 5 4 4 4 4 3 3 3 4 4 3 2 2 5 6 6 5 4 3 4 4 4 3 5 3 1 1 2 2 2 2 3 3 2 3

GFSNGP_con_lsi_345.txt.gz
Lid_Strength_Index
13 13 12 12 11 11 14 14 15 14 14 11 10 9 7 8 7 6 6 6 7 6 5 5 4 4 3 3 4 4 2 2 2 2 1 1 1 1 1 1 1 1 2 2
14 12 11 11 10 11 12 12 11 11 13 9 8 8 8 7 7 7 7 6 5 5 4 4 4 4 3 3 3 3 4 4 2 2 2 2 3 2 1 1 2 2 2 2
15 13 12 13 12 11 11 11 10 13 11 9 9 8 8 7 7 7 6 6 5 5 4 4 3 3 3 3 3 3 3 3 3 3 4 3 3 4 4 3 1 2 2 2
15 14 16 11 10 9 10 9 9 9 9 8 8 7 7 6 6 6 5 5 5 4 4 3 3 3 3 2 3 3 3 3 4 4 4 4 3 2 4 3 2 2 2 2
15 15 13 11 9 9 10 12 9 9 8 7 7 8 8 5 5 5 5 4 4 3 3 3 3 3 3 3 3 3 3 3 3 3 3 3 2 2 3 4 2 2 3 4
16 16 16 12 9 7 8 13 8 8 8 7 8 11 9 6 5 5 4 4 4 3 3 3 3 2 3 3 3 3 3 3 3 3 3 3 3 2 3 3 2 1 3 4
15 15 13 10 8 8 13 12 7 7 8 9 9 9 7 5 5 4 4 4 3 3 3 3 2 3 4 3 3 2 2 2 3 3 4 3 3 3 3 2 3 3 2 4
15 15 15 8 8 10 9 8 7 8 8 8 8 8 7 6 6 5 5 4 4 4 4 3 3 4 4 3 2 2 2 2 2 3 3 3 2 2 2 2 3 2 2 2
12 12 9 9 9 8 8 8 8 8 8 7 7 7 6 6 6 5 5 5 4 5 5 4 3 3 3 3 2 2 3 3 2 2 3 3 3 3 2 2 3 4 4 5
11 9 9 8 8 8 7 7 7 7 7 6 7 7 7 7 6 5 5 6 6 7 7 6 5 4 3 2 2 2 3 3 3 3 3 3 4 3 3 4 4 4 5 4
11 9 8 7 7 6 6 6 6 6 6 6 6 7 7 6 6 6 6 6 6 6 6 5 5 4 4 3 2 3 3 2 3 2 3 4 4 5 3 2 3 3 3 3
11 9 8 8 6 6 6 6 6 6 6 6 6 6 6 7 7 7 6 6 6 6 6 5 4 4 4 4 4 4 4 3 2 2 2 2 3 2 5 6 6 7 9 5
8 8 7 6 6 6 6 6 6 6 6 7 7 7 7 7 7 6 6 6 6 5 5 5 5 5 5 5 5 6 6 5 4 4 3 3 3 3 4 5 7 8 10 10
7 6 8 7 7 6 5 6 6 6 6 6 6 7 6 5 6 6 7 6 5 5 5 5 6 6 5 5 6 6 5 6 5 5 4 3 3 3 3 5 5 5 6 8
6 6 6 6 6 7 6 6 7 7 6 6 6 5 5 6 7 7 6 5 5 6 6 6 6 6 5 5 6 5 5 5 5 5 5 4 3 3 3 3 4 5 5 7
6 6 7 6 7 7 7 7 7 7 6 5 5 5 5 6 7 7 6 6 7 7 7 6 6 5 5 5 6 5 4 4 5 5 5 4 4 3 3 3 3 3 4 4
7 8 8 8 8 8 8 7 7 5 5 5 5 5 6 7 7 7 7 6 7 7 6 6 5 3 3 4 4 3 3 5 4 3 4 3 3 3 3 3 3 3 3 3
6 5 6 6 7 8 7 6 5 5 5 5 5 5 7 8 7 7 7 6 6 6 6 4 4 2 2 2 4 3 5 5 4 4 3 3 3 3 4 3 3 4 4 5
6 7 6 6 6 7 6 5 5 4 5 5 6 7 8 7 6 7 7 7 7 7 5 4 2 2 2 1 1 1 2 2 2 3 4 4 3 2 3 3 3 3 4 4
6 6 7 7 6 6 5 4 5 5 6 6 7 8 8 7 7 7 6 6 5 5 5 4 3 3 3 1 1 1 2 2 2 2 3 4 4 3 3 5 3 3 3 3
7 7 7 7 6 5 4 4 5 6 6 7 8 8 7 6 6 6 6 6 5 4 4 2 3 3 3 1 1 1 2 2 2 2 3 4 4 3 4 3 3 3 3 3
7 7 6 5 5 5 5 5 5 6 8 8 7 6 6 7 6 6 5 5 5 4 3 4 3 2 2 1 2 2 2 2 2 2 2 2 3 3 4 4 4 3 3 3
6 6 5 5 5 5 5 5 6 7 7 6 6 6 6 6 5 5 5 4 5 4 4 4 3 2 1 3 3 3 3 3 2 2 2 2 2 2 2 2 2 2 2 2
6 6 6 5 5 5 6 6 6 6 5 6 6 6 5 5 5 4 4 4 4 4 4 3 3 2 2 3 3 4 3 3 3 2 2 4 2 2 2 2 2 2 2 2
5 6 5 5 5 5 6 6 5 4 6 6 5 4 5 5 4 4 4 3 3 3 2 2 1 2 3 4 3 3 3 3 2 2 2 2 2 2 2 2 2 2 3 3
5 5 5 6 5 6 6 4 4 5 5 5 5 4 4 4 5 5 4 4 2 3 3 3 4 5 3 5 5 4 3 3 3 3 4 4 4 4 4 3 3 2 3 3
6 7 6 6 6 5 3 4 4 5 4 4 4 4 4 3 3 4 5 3 2 3 6 6 6 5 5 4 5 5 5 5 6 4 4 5 6 7 7 7 7 7 6 5